Location: Unspecified
(0.0000°N, 0.0000°E)
Time: 04:10:23
(UTC+00:00)

STARLINK-1057 - Pass Details

Date: 17 January 2020
Orbit: 548 x 551 km, 53.0° (Epoch: 02 December)

Event Time Altitude Azimuth Distance (km) Brightness Sun altitude
Rises 05:17:35 0° 206° (SSW) 2,680 7.1 -12.2°
Reaches altitude 10° 05:19:51 10° 202° (SSW) 1,786 6.2 -11.7°
Maximum altitude 05:23:48 53° 124° (SE) 655 4.4 -10.7°
Drops below altitude 10° 05:27:45 10° 46° (NE) 1,778 6.6 -9.8°
Sets 05:29:59 0° 42° (NE) 2,666 7.4 -9.3°
